TimePDT,TemperatureF,Dew PointF,Humidity,Sea Level PressureIn,VisibilityMPH,Wind Direction,Wind SpeedMPH,Gust SpeedMPH,PrecipitationIn,Events,Conditions,WindDirDegrees,DateUTC
12:53 AM,66.9,37.9,34,29.75,-9999.0,SSW,5.8,-,N/A,,Unknown,200,2013-07-21 07:53:00
1:53 AM,68.0,35.1,30,29.75,-9999.0,South,8.1,-,N/A,,Unknown,180,2013-07-21 08:53:00
2:53 AM,64.9,35.1,33,29.78,-9999.0,South,5.8,-,N/A,,Unknown,190,2013-07-21 09:53:00
3:53 AM,60.1,37.9,44,29.80,-9999.0,SSW,9.2,-,N/A,,Unknown,210,2013-07-21 10:53:00
4:53 AM,60.1,35.1,39,29.78,-9999.0,South,4.6,-,N/A,,Unknown,190,2013-07-21 11:53:00
5:53 AM,61.0,35.1,38,29.80,-9999.0,South,6.9,-,N/A,,Unknown,190,2013-07-21 12:53:00
6:53 AM,66.9,37.9,34,29.80,-9999.0,SSW,5.8,-,N/A,,Unknown,200,2013-07-21 13:53:00
7:53 AM,75.0,39.0,27,29.81,-9999.0,SW,4.6,-,N/A,,Unknown,230,2013-07-21 14:53:00
8:53 AM,81.0,37.9,21,29.81,-9999.0,Calm,Calm,-,N/A,,Unknown,0,2013-07-21 15:53:00
9:53 AM,87.1,37.9,18,29.79,-9999.0,ENE,5.8,-,N/A,,Unknown,60,2013-07-21 16:53:00
10:53 AM,89.1,39.9,18,29.78,-9999.0,East,8.1,-,N/A,,Unknown,90,2013-07-21 17:53:00
11:53 AM,91.9,36.0,14,29.77,-9999.0,East,5.8,-,N/A,,Unknown,80,2013-07-21 18:53:00
12:53 PM,93.9,27.0,9,29.75,-9999.0,North,-9999.0,-,N/A,,Unknown,0,2013-07-21 19:53:00
1:31 PM,91.9,30.0,11,30.05,-9999.0,North,17.3,-,N/A,,Unknown,360,2013-07-21 20:31:00
1:53 PM,91.0,36.0,14,29.75,-9999.0,North,16.1,-,N/A,,Unknown,10,2013-07-21 20:53:00
2:53 PM,93.9,28.0,10,29.75,-9999.0,Variable,6.9,-,N/A,,Unknown,0,2013-07-21 21:53:00
3:53 PM,96.1,26.1,8,29.73,-9999.0,North,-9999.0,-,N/A,,Unknown,0,2013-07-21 22:53:00
4:53 PM,93.9,28.9,10,29.73,-9999.0,South,8.1,26.5,N/A,,Unknown,170,2013-07-21 23:53:00
5:53 PM,90.0,34.0,14,29.72,-9999.0,South,6.9,-,N/A,,Unknown,190,2013-07-22 00:53:00
6:53 PM,87.1,34.0,15,29.73,-9999.0,South,5.8,-,N/A,,Unknown,170,2013-07-22 01:53:00
7:53 PM,82.0,37.0,20,29.75,-9999.0,SSE,8.1,-,N/A,,Unknown,160,2013-07-22 02:53:00
8:53 PM,78.1,34.0,20,29.76,-9999.0,East,3.5,-,N/A,,Unknown,80,2013-07-22 03:53:00
9:53 PM,75.9,37.9,25,29.78,-9999.0,SSW,10.4,-,N/A,,Unknown,200,2013-07-22 04:53:00
10:53 PM,75.9,39.0,26,29.79,-9999.0,SSE,16.1,-,N/A,,Unknown,160,2013-07-22 05:53:00
11:53 PM,71.1,39.9,32,29.81,-9999.0,SSW,6.9,-,N/A,,Unknown,200,2013-07-22 06:53:00